Weather in Pinczow

Poland     50°31′15″N   20°31′54″E
temp.,
°C
wind,
m/s
gust,
m/s
humid.,
%
clouds,
%
prec.,
mm/h
press.,
hPa
HPBL,
m
23 october, sat
sat2323:00+9w9164830 0.0 10141094
02:00+8w9156388 0.0 10151498
05:00+6wnw713724 0.4 1017913
08:00+5w7137710 0.4 1020840
11:00+8w8126043 0.0 10211382
14:00+10wnw9124753 0.0 10211959
17:00+8wnw611616 0.3 1023909
20:00+6wnw511705 0.3 1026419
24 october, sun
sun2423:00+5wnw612775 0.0 1028394
02:00+4wnw510855 0.0 1029304
05:00+3wnw359448 0.0 1030107
08:00+3w239454 0.0 103283
11:00+7w3371100 0.0 1033542
14:00+10wnw335659 0.0 10321242
17:00+8wnw0164100 0.0 103110
20:00+6se227147 0.0 103121
25 october, mon
mon2523:00+4se338027 0.0 103240
02:00+3se34846 0.0 103170
05:00+2se338761 0.0 103038
08:00+2se238239 0.0 102952
11:00+8sse33548 0.0 1028315
14:00+12sse334380 0.0 1026540
17:00+9sse115453 0.0 102510
20:00+7se11615 0.0 102510
26 october, tue
tue2623:00+6wsw11625 0.0 102510
02:00+5nw00622 0.0 102510
05:00+4ssw11660 0.0 102510
08:00+4s11681 0.0 102510
11:00+10ssw225163 0.0 1024330
14:00+12sw2243100 0.0 1023693
17:00+9wsw2254100 0.0 102316
20:00+7wsw226597 0.0 102422
27 october, wed
wed2723:00+6wsw337035 0.0 102442
02:00+4w237516 0.0 102431
05:00+4w22795 0.0 102517
08:00+4w228114 0.0 102633
11:00+10wnw356817 0.0 1026431
14:00+13wnw44628 0.0 1025898
17:00+10nw22745 0.0 102616
20:00+8wnw11852 0.0 102710